Location: Nitra
(48.3167°N, 18.0833°E)
Time: 18:06:28
(UTC+01:00)

STARLINK-1763 - Pass Details

Date: 24 September 2020
Orbit: 379 x 381 km, 53.0° (Epoch: 30 October)

Event Time Altitude Azimuth Distance (km) Brightness Sun altitude
Exits shadow 03:39:27 18° 53° (NE) 1,102 5.9 -28.6°
Drops below altitude 10° 03:40:29 10° 61° (ENE) 1,479 6.8 -28.4°
Enters shadow 04:36:58 -68° 268° (W) 12,241 10.4 -20.3°
Maximum altitude 05:13:57 40° 11° (N) 624 4.1 -14.5°
